Weather History for Elmendorf AFB, AK

Change the Weather History Date:

Wednesday, June 5, 2013

  Actual Average Record
Temperature  
Mean Temperature 50 °F -  
Max Temperature 61 °F 61 °F 75 °F (1990)
Min Temperature 42 °F 45 °F 37 °F (1975)
Degree Days  
Heating Degree Days 14    
Moisture  
Dew Point 36 °F    
Average Humidity 55    
Maximum Humidity 75    
Minimum Humidity 38    
Precipitation  
Precipitation 0.00 in - - ()
Sea Level Pressure  
Sea Level Pressure 29.93 in    
Wind  
Wind Speed 6 mph (West)    
Max Wind Speed 14 mph    
Max Gust Speed -    
Visibility 10 miles    
Events      
Averages and records for this station are not official NWS values.
T = Trace of Precipitation, MM = Missing Value Source: NWS Daily Summary

Daily Weather History Graph

Daily Weather History Graph

Search for Another Location

Airport:

Trip Planner

Search our weather history database for the weather conditions in past years. The results will help you decide how hot, cold, wet, or windy it might be!

Date:

Astronomy

Jun. 05, 2013 Rise Set
Actual Time 4:28 AM AKDT 11:28 PM AKDT
Civil Twilight 2:23 AM AKDT 1:41 AM AKDT
Nautical Twilight Sun does not rise Sun does not rise
Astronomical Twilight Sun does not rise Sun does not rise
Moon 3:32 AM AKDT (6/5) 8:20 PM AKDT (6/5)
Length of Visible Light 23h 18m
Length of Day
18h 59m
Waning Crescent, 7% of the Moon is Illuminated
Jun 5
Waning Crescent
Jun 8
New
Jun 16
First Quarter
Jun 23
Full
Jun 29
Last Quarter

Hourly Weather History & Observations

Time (AKDT) Temp. Windchill Dew Point Humidity Pressure Visibility Wind Dir Wind Speed Gust Speed Precip Events Conditions
12:55 AM 48.9 °F - 32.0 °F 52% 29.85 in 10.0 mi East 5.8 mph - N/A   Clear
1:55 AM 44.2 °F - 33.6 °F 66% 29.86 in 10.0 mi Calm Calm - N/A   Clear
2:55 AM 43.9 °F 39.3 °F 33.1 °F 66% 29.88 in 10.0 mi ESE 8.1 mph - N/A   Clear
3:55 AM 44.4 °F - 32.4 °F 63% 29.88 in 10.0 mi Calm Calm - N/A   Clear
4:55 AM 42.1 °F - 33.3 °F 71% 29.90 in 10.0 mi Calm Calm - N/A   Clear
5:55 AM 43.3 °F 40.7 °F 35.2 °F 73% 29.91 in 10.0 mi WNW 4.6 mph - N/A   Clear
6:55 AM 46.8 °F - 39.2 °F 75% 29.92 in 10.0 mi Calm Calm - N/A   Clear
7:55 AM 48.9 °F - 39.4 °F 70% 29.94 in 10.0 mi WNW 8.1 mph - N/A   Clear
8:55 AM 51.1 °F - 38.7 °F 63% 29.94 in 10.0 mi WSW 9.2 mph - N/A   Clear
9:55 AM 52.2 °F - 38.5 °F 60% 29.96 in 10.0 mi WSW 6.9 mph - N/A   Clear
10:55 AM 53.6 °F - 39.9 °F 60% 29.97 in 10.0 mi NW 11.5 mph - N/A   Clear
11:55 AM 54.5 °F - 39.2 °F 56% 29.97 in 10.0 mi NW 10.4 mph - N/A   Clear
12:55 PM 55.6 °F - 38.5 °F 53% 29.97 in 10.0 mi NW 13.8 mph - N/A   Clear
1:55 PM 57.4 °F - 37.8 °F 48% 29.97 in 10.0 mi West 12.7 mph - N/A   Clear
2:55 PM 57.6 °F - 38.5 °F 49% 29.97 in 10.0 mi WSW 12.7 mph - N/A   Clear
3:55 PM 57.9 °F - 38.5 °F 48% 29.96 in 10.0 mi West 12.7 mph - N/A   Clear
4:55 PM 58.3 °F - 38.5 °F 48% 29.96 in 10.0 mi WSW 9.2 mph - N/A   Clear
5:55 PM 58.1 °F - 37.8 °F 47% 29.96 in 10.0 mi Variable 5.8 mph - N/A   Mostly Cloudy
6:55 PM 59.4 °F - 36.7 °F 43% 29.95 in 10.0 mi NNE 3.5 mph - N/A   Mostly Cloudy
7:55 PM 59.4 °F - 35.6 °F 41% 29.94 in 10.0 mi North 6.9 mph - N/A   Scattered Clouds
8:55 PM 59.2 °F - 33.4 °F 38% 29.93 in 10.0 mi WSW 9.2 mph - N/A   Partly Cloudy
9:55 PM 57.0 °F - 32.9 °F 40% 29.94 in 10.0 mi WSW 9.2 mph - N/A   Clear
10:55 PM 54.7 °F - 32.5 °F 43% 29.95 in 10.0 mi WSW 4.6 mph - N/A   Clear
11:55 PM 51.1 °F - 32.4 °F 49% 29.96 in 10.0 mi Calm Calm - N/A   Clear